contact:dominique.lefevre@mio.osupytheas.fr, maurice.libes@osupytheas.fr, didier.mallarino@osupytheas.fr
Project:EMSO http://www.emso-fr.org/EMSO-France
Depth: 2436.0 m
Title:EMSO Ligure Ouest : Data MII capteur CSTAR
DateTime,Latitude,Longitude,Instrument_Serial,Reference_Counts,Signal_Counts,Corrected_Signal_raw_counts,Calculated_Beam_c_inverse_meters,Internal_thermistor_counts
DateTime,Latitude,Longitude,Instrument_Serial,Reference_Counts,Signal_Counts,Corrected_Signal_raw_counts,Calculated_Beam_c_inverse_meters,Internal_thermistor_counts
2022-12-14T08:45:07,42.805,6.029,CST-1368DR,4457,5028,11995,01.055,551
2022-12-14T09:15:07,42.805,6.029,CST-1368DR,4458,5033,12005,01.052,551
2022-12-14T09:18:08,42.805,6.029,CST-1368DR,4458,5033,12004,01.052,551
2022-12-14T09:21:10,42.805,6.029,CST-1368DR,4458,5033,12004,01.052,551
2022-12-14T09:24:12,42.805,6.029,CST-1368DR,4458,5033,12005,01.052,551
2022-12-14T09:27:13,42.805,6.029,CST-1368DR,4458,5030,11996,01.055,551
2022-12-14T09:30:15,42.805,6.029,CST-1368DR,4458,5030,11996,01.055,551
2022-12-14T09:33:16,42.805,6.029,CST-1368DR,4458,5030,11996,01.055,551
2022-12-14T09:36:18,42.805,6.029,CST-1368DR,4457,5030,12000,01.054,551
2022-12-14T09:39:20,42.805,6.029,CST-1368DR,4457,5030,11999,01.054,551
2022-12-14T09:42:21,42.805,6.029,CST-1368DR,4457,5029,11998,01.054,551
2022-12-14T09:45:23,42.805,6.029,CST-1368DR,4457,5029,11997,01.055,551
2022-12-14T09:48:24,42.805,6.029,CST-1368DR,4457,5029,11997,01.055,551
2022-12-14T09:51:26,42.805,6.029,CST-1368DR,4457,5029,11996,01.055,551
2022-12-14T09:54:27,42.805,6.029,CST-1368DR,4457,5029,11997,01.055,551
2022-12-14T09:57:29,42.805,6.029,CST-1368DR,4457,5029,11996,01.055,551
2022-12-14T10:00:31,42.805,6.029,CST-1368DR,4457,5028,11994,01.056,551
2022-12-14T10:03:32,42.805,6.029,CST-1368DR,4457,5028,11994,01.056,551
2022-12-14T10:06:34,42.805,6.029,CST-1368DR,4457,5028,11994,01.056,551
2022-12-14T10:09:35,42.805,6.029,CST-1368DR,4457,5025,11988,01.058,551
2022-12-14T10:12:37,42.805,6.029,CST-1368DR,4457,5027,11992,01.056,551
2022-12-14T10:15:39,42.805,6.029,CST-1368DR,4457,5026,11990,01.057,551
2022-12-14T10:18:40,42.805,6.029,CST-1368DR,4457,5029,11996,01.055,551
2022-12-14T10:21:42,42.805,6.029,CST-1368DR,4456,5028,11996,01.055,551
2022-12-14T10:24:43,42.805,6.029,CST-1368DR,4456,5027,11994,01.056,551
2022-12-14T10:27:45,42.805,6.029,CST-1368DR,4456,5027,11994,01.056,551
2022-12-14T10:30:46,42.805,6.029,CST-1368DR,4456,5025,11989,01.057,551
2022-12-14T10:33:48,42.805,6.029,CST-1368DR,4456,5026,11991,01.057,551
2022-12-14T10:36:50,42.805,6.029,CST-1368DR,4456,5026,11992,01.056,551
2022-12-14T10:39:51,42.805,6.029,CST-1368DR,4456,5024,11987,01.058,551
2022-12-14T10:42:53,42.805,6.029,CST-1368DR,4456,5023,11986,01.058,551
2022-12-14T10:45:54,42.805,6.029,CST-1368DR,4456,5021,11981,01.060,551
2022-12-14T10:48:56,42.805,6.029,CST-1368DR,4456,5025,11989,01.057,551
2022-12-14T10:51:58,42.805,6.029,CST-1368DR,4456,5024,11987,01.058,551
2022-12-14T10:54:59,42.805,6.029,CST-1368DR,4456,5021,11981,01.060,551
2022-12-14T10:58:01,42.805,6.029,CST-1368DR,4456,5023,11985,01.059,551
2022-12-14T11:01:02,42.805,6.029,CST-1368DR,4456,5024,11988,01.058,551
2022-12-14T11:04:04,42.805,6.029,CST-1368DR,4456,5025,11991,01.057,551
2022-12-14T11:07:05,42.805,6.029,CST-1368DR,4456,5021,11981,01.060,551
2022-12-14T11:10:07,42.805,6.029,CST-1368DR,4456,5027,11994,01.056,551
2022-12-14T11:13:09,42.805,6.029,CST-1368DR,4456,5027,11995,01.055,551
2022-12-14T11:16:10,42.805,6.029,CST-1368DR,4456,5025,11991,01.057,551
2022-12-14T11:19:12,42.805,6.029,CST-1368DR,4456,5024,11987,01.058,551
2022-12-14T11:22:13,42.805,6.029,CST-1368DR,4456,5024,11987,01.058,551
2022-12-14T11:25:15,42.805,6.029,CST-1368DR,4456,5023,11986,01.058,551
2022-12-14T11:28:17,42.805,6.029,CST-1368DR,4456,5023,11986,01.058,551
2022-12-14T11:31:18,42.805,6.029,CST-1368DR,4456,5021,11980,01.060,551
2022-12-14T11:34:20,42.805,6.029,CST-1368DR,4455,5024,11989,01.057,551
2022-12-14T11:37:21,42.805,6.029,CST-1368DR,4455,5022,11986,01.058,551
2022-12-14T11:40:23,42.805,6.029,CST-1368DR,4455,5024,11990,01.057,551
2022-12-14T11:43:24,42.805,6.029,CST-1368DR,4455,5024,11990,01.057,551
2022-12-14T11:46:26,42.805,6.029,CST-1368DR,4455,5022,11986,01.058,551
2022-12-14T11:49:28,42.805,6.029,CST-1368DR,4455,5025,11993,01.056,551
2022-12-14T11:52:29,42.805,6.029,CST-1368DR,4455,5024,11990,01.057,551
2022-12-14T11:55:31,42.805,6.029,CST-1368DR,4455,5023,11987,01.058,551
2022-12-14T11:58:32,42.805,6.029,CST-1368DR,4455,5024,11990,01.057,551
2022-12-14T12:01:34,42.805,6.029,CST-1368DR,4455,5024,11990,01.057,551
2022-12-14T12:04:36,42.805,6.029,CST-1368DR,4455,5022,11985,01.059,551
2022-12-14T12:07:37,42.805,6.029,CST-1368DR,4455,5024,11990,01.057,551
2022-12-14T12:10:39,42.805,6.029,CST-1368DR,4455,5024,11990,01.057,551
2022-12-14T12:13:40,42.805,6.029,CST-1368DR,4455,5027,11996,01.055,551
2022-12-14T12:16:42,42.805,6.029,CST-1368DR,4455,5026,11995,01.055,551
2022-12-14T12:19:44,42.805,6.029,CST-1368DR,4455,5028,11999,01.054,551
2022-12-14T12:22:45,42.805,6.029,CST-1368DR,4455,5028,11999,01.054,551
2022-12-14T12:25:47,42.805,6.029,CST-1368DR,4455,5027,11998,01.054,551
2022-12-14T12:28:48,42.805,6.029,CST-1368DR,4455,5026,11996,01.055,551
2022-12-14T12:31:50,42.805,6.029,CST-1368DR,4455,5026,11995,01.055,551
2022-12-14T12:34:51,42.805,6.029,CST-1368DR,4455,5028,11999,01.054,551
2022-12-14T12:37:53,42.805,6.029,CST-1368DR,4455,5024,11989,01.057,551
2022-12-14T12:40:55,42.805,6.029,CST-1368DR,4455,5027,11996,01.055,551
2022-12-14T12:43:56,42.805,6.029,CST-1368DR,4455,5027,11998,01.054,551
2022-12-14T12:46:58,42.805,6.029,CST-1368DR,4455,5022,11986,01.058,551
2022-12-14T12:49:59,42.805,6.029,CST-1368DR,4455,5026,11994,01.056,551
2022-12-14T12:53:01,42.805,6.029,CST-1368DR,4455,5024,11990,01.057,551
2022-12-14T12:56:03,42.805,6.029,CST-1368DR,4455,5025,11993,01.056,551
2022-12-14T12:59:04,42.805,6.029,CST-1368DR,4454,5027,11999,01.054,551
2022-12-14T13:02:06,42.805,6.029,CST-1368DR,4454,5014,11970,01.064,551
2022-12-14T13:05:07,42.805,6.029,CST-1368DR,4454,5026,11998,01.054,551
2022-12-14T13:08:09,42.805,6.029,CST-1368DR,4454,5025,11995,01.055,551
2022-12-14T13:11:10,42.805,6.029,CST-1368DR,4454,5027,12000,01.054,551
2022-12-14T13:14:12,42.805,6.029,CST-1368DR,4454,5029,12004,01.052,551
2022-12-14T13:17:14,42.805,6.029,CST-1368DR,4454,5028,12001,01.053,551
2022-12-14T13:20:15,42.805,6.029,CST-1368DR,4454,5027,12001,01.053,551
2022-12-14T13:23:17,42.805,6.029,CST-1368DR,4454,5024,11994,01.056,551
2022-12-14T13:26:18,42.805,6.029,CST-1368DR,4454,5026,11998,01.054,551
2022-12-14T13:29:20,42.805,6.029,CST-1368DR,4454,5026,11997,01.055,551
2022-12-14T13:32:22,42.805,6.029,CST-1368DR,4454,5026,11998,01.054,551
2022-12-14T13:35:23,42.805,6.029,CST-1368DR,4454,5026,11998,01.054,551
2022-12-14T13:38:25,42.805,6.029,CST-1368DR,4454,5025,11994,01.056,551
2022-12-14T13:41:26,42.805,6.029,CST-1368DR,4454,5024,11992,01.056,551
2022-12-14T13:44:28,42.805,6.029,CST-1368DR,4454,5024,11992,01.056,551
2022-12-14T13:47:29,42.805,6.029,CST-1368DR,4454,5023,11991,01.057,551
2022-12-14T13:50:31,42.805,6.029,CST-1368DR,4454,5023,11991,01.057,551
2022-12-14T13:53:33,42.805,6.029,CST-1368DR,4454,5023,11990,01.057,551
2022-12-14T13:56:34,42.805,6.029,CST-1368DR,4454,5023,11990,01.057,551
2022-12-14T13:59:36,42.805,6.029,CST-1368DR,4454,5023,11991,01.057,551
2022-12-14T14:02:37,42.805,6.029,CST-1368DR,4454,5022,11989,01.057,551
2022-12-14T14:05:39,42.805,6.029,CST-1368DR,4454,5022,11989,01.057,551
2022-12-14T14:08:41,42.805,6.029,CST-1368DR,4454,5025,11995,01.055,551
2022-12-14T14:11:42,42.805,6.029,CST-1368DR,4454,5024,11993,01.056,551
2022-12-14T14:14:44,42.805,6.029,CST-1368DR,4454,5022,11988,01.058,551
2022-12-14T14:17:45,42.805,6.029,CST-1368DR,4454,5023,11989,01.057,551
2022-12-14T14:20:47,42.805,6.029,CST-1368DR,4454,5026,11998,01.054,550
2022-12-14T14:23:49,42.805,6.029,CST-1368DR,4454,5024,11994,01.056,551
2022-12-14T14:26:50,42.805,6.029,CST-1368DR,4454,5022,11989,01.057,551
2022-12-14T14:29:52,42.805,6.029,CST-1368DR,4454,5023,11989,01.057,551
2022-12-14T14:32:53,42.805,6.029,CST-1368DR,4454,5023,11991,01.057,551
2022-12-14T14:35:55,42.805,6.029,CST-1368DR,4454,5022,11989,01.057,551
2022-12-14T14:38:56,42.805,6.029,CST-1368DR,4454,5021,11986,01.058,551
2022-12-14T14:41:58,42.805,6.029,CST-1368DR,4454,5021,11986,01.058,551
2022-12-14T14:45:00,42.805,6.029,CST-1368DR,4454,5023,11990,01.057,551
2022-12-14T14:48:01,42.805,6.029,CST-1368DR,4454,5026,11998,01.054,551
2022-12-14T14:51:03,42.805,6.029,CST-1368DR,4453,5022,11990,01.057,551
2022-12-14T14:54:04,42.805,6.029,CST-1368DR,4453,5022,11990,01.057,551
2022-12-14T14:57:06,42.805,6.029,CST-1368DR,4453,5019,11982,01.060,551
2022-12-14T15:00:08,42.805,6.029,CST-1368DR,4453,5020,11985,01.059,551
2022-12-14T15:03:09,42.805,6.029,CST-1368DR,4453,5022,11990,01.057,551
2022-12-14T15:06:11,42.805,6.029,CST-1368DR,4453,5022,11991,01.057,551
2022-12-14T15:09:12,42.805,6.029,CST-1368DR,4453,5024,11994,01.056,551
2022-12-14T15:12:14,42.805,6.029,CST-1368DR,4453,5020,11986,01.058,551
2022-12-14T15:15:15,42.805,6.029,CST-1368DR,4453,5019,11983,01.059,551
2022-12-14T15:18:17,42.805,6.029,CST-1368DR,4453,5022,11991,01.057,551
2022-12-14T15:21:19,42.805,6.029,CST-1368DR,4453,5024,11994,01.056,551
2022-12-14T15:24:20,42.805,6.029,CST-1368DR,4453,5022,11990,01.057,551
2022-12-14T15:27:22,42.805,6.029,CST-1368DR,4453,5020,11987,01.058,551
2022-12-14T15:30:23,42.805,6.029,CST-1368DR,4453,5023,11994,01.056,551
2022-12-14T15:33:25,42.805,6.029,CST-1368DR,4453,5021,11987,01.058,551
2022-12-14T15:36:27,42.805,6.029,CST-1368DR,4453,5022,11990,01.057,551
2022-12-14T15:39:28,42.805,6.029,CST-1368DR,4453,5022,11990,01.057,551
2022-12-14T15:42:30,42.805,6.029,CST-1368DR,4453,5022,11990,01.057,551
2022-12-14T15:45:31,42.805,6.029,CST-1368DR,4453,5022,11991,01.057,551
2022-12-14T15:48:33,42.805,6.029,CST-1368DR,4453,5023,11992,01.056,551
2022-12-14T15:51:34,42.805,6.029,CST-1368DR,4453,5023,11993,01.056,551
2022-12-14T15:54:36,42.805,6.029,CST-1368DR,4453,5024,11996,01.055,551
2022-12-14T15:57:38,42.805,6.029,CST-1368DR,4453,5024,11996,01.055,551
2022-12-14T16:00:39,42.805,6.029,CST-1368DR,4453,5026,11999,01.054,551
2022-12-14T16:03:41,42.805,6.029,CST-1368DR,4453,5024,11996,01.055,551
2022-12-14T16:06:42,42.805,6.029,CST-1368DR,4453,5026,12000,01.054,551
2022-12-14T16:09:44,42.805,6.029,CST-1368DR,4453,5025,11997,01.055,551
2022-12-14T16:12:46,42.805,6.029,CST-1368DR,4453,5024,11996,01.055,551
2022-12-14T16:15:47,42.805,6.029,CST-1368DR,4453,5027,12003,01.053,551
2022-12-14T16:18:49,42.805,6.029,CST-1368DR,4453,5029,12008,01.051,551
2022-12-14T16:21:50,42.805,6.029,CST-1368DR,4453,5036,12023,01.046,551
2022-12-14T16:24:52,42.805,6.029,CST-1368DR,4453,5034,12020,01.047,551
2022-12-14T16:27:54,42.805,6.029,CST-1368DR,4453,5037,12025,01.045,551
2022-12-14T16:30:55,42.805,6.029,CST-1368DR,4453,5036,12025,01.045,551
2022-12-14T16:33:57,42.805,6.029,CST-1368DR,4453,5034,12020,01.047,551
2022-12-14T16:36:58,42.805,6.029,CST-1368DR,4453,5033,12016,01.048,551
2022-12-14T16:40:00,42.805,6.029,CST-1368DR,4453,5027,12003,01.053,551
2022-12-14T16:43:01,42.805,6.029,CST-1368DR,4453,5026,12000,01.054,551
2022-12-14T16:46:03,42.805,6.029,CST-1368DR,4453,5026,12000,01.054,551
2022-12-14T16:49:05,42.805,6.029,CST-1368DR,4453,5030,12009,01.051,551
2022-12-14T16:52:06,42.805,6.029,CST-1368DR,4453,5031,12011,01.050,551
2022-12-14T16:55:08,42.805,6.029,CST-1368DR,4453,5036,12024,01.046,551
2022-12-14T16:58:09,42.805,6.029,CST-1368DR,4452,5030,12012,01.050,551
2022-12-14T17:01:11,42.805,6.029,CST-1368DR,4452,5029,12009,01.051,551
2022-12-14T17:04:13,42.805,6.029,CST-1368DR,4452,5029,12011,01.050,551
2022-12-14T17:07:14,42.805,6.029,CST-1368DR,4452,5029,12010,01.050,551
2022-12-14T17:10:16,42.805,6.029,CST-1368DR,4452,5031,12015,01.049,551
2022-12-14T17:13:17,42.805,6.029,CST-1368DR,4452,5030,12013,01.049,551
2022-12-14T17:16:19,42.805,6.029,CST-1368DR,4452,5028,12007,01.051,551
2022-12-14T17:19:20,42.805,6.029,CST-1368DR,4452,5031,12014,01.049,551
2022-12-14T17:22:22,42.805,6.029,CST-1368DR,4452,5031,12014,01.049,551
2022-12-14T17:25:24,42.805,6.029,CST-1368DR,4452,5032,12017,01.048,551
2022-12-14T17:28:25,42.805,6.029,CST-1368DR,4452,5026,12002,01.053,551
2022-12-14T17:31:27,42.805,6.029,CST-1368DR,4452,5031,12015,01.049,551
2022-12-14T17:34:28,42.805,6.029,CST-1368DR,4452,5031,12014,01.049,551
2022-12-14T17:37:30,42.805,6.029,CST-1368DR,4452,5034,12021,01.047,551
2022-12-14T17:40:32,42.805,6.029,CST-1368DR,4452,5032,12017,01.048,551
2022-12-14T17:43:33,42.805,6.029,CST-1368DR,4452,5035,12025,01.045,551
2022-12-14T17:46:35,42.805,6.029,CST-1368DR,4452,5036,12026,01.045,551
2022-12-14T17:49:36,42.805,6.029,CST-1368DR,4452,4955,11833,01.110,551
2022-12-14T17:52:38,42.805,6.029,CST-1368DR,4452,5036,12026,01.045,551
2022-12-14T17:55:39,42.805,6.029,CST-1368DR,4452,5033,12020,01.047,551
2022-12-14T17:58:41,42.805,6.029,CST-1368DR,4452,5035,12025,01.045,551
2022-12-14T18:01:43,42.805,6.029,CST-1368DR,4452,5036,12027,01.045,551
2022-12-14T18:04:44,42.805,6.029,CST-1368DR,4452,5033,12019,01.047,551
2022-12-14T18:07:46,42.805,6.029,CST-1368DR,4452,5034,12021,01.047,551
2022-12-14T18:10:47,42.805,6.029,CST-1368DR,4452,5027,12005,01.052,551
2022-12-14T18:13:49,42.805,6.029,CST-1368DR,4452,5031,12014,01.049,551
2022-12-14T18:16:51,42.805,6.029,CST-1368DR,4452,5026,12004,01.052,551
2022-12-14T18:19:52,42.805,6.029,CST-1368DR,4452,5035,12024,01.046,551
2022-12-14T18:22:54,42.805,6.029,CST-1368DR,4452,5036,12026,01.045,551
2022-12-14T18:25:55,42.805,6.029,CST-1368DR,4452,5034,12021,01.047,551
2022-12-14T18:28:57,42.805,6.029,CST-1368DR,4452,5034,12021,01.047,551
2022-12-14T18:31:59,42.805,6.029,CST-1368DR,4452,5036,12026,01.045,551
2022-12-14T18:35:00,42.805,6.029,CST-1368DR,4452,5038,12030,01.044,551
2022-12-14T18:38:02,42.805,6.029,CST-1368DR,4452,5038,12032,01.043,551
2022-12-14T18:41:03,42.805,6.029,CST-1368DR,4452,5036,12026,01.045,551
2022-12-14T18:44:05,42.805,6.029,CST-1368DR,4452,5027,12004,01.052,551
2022-12-14T18:47:06,42.805,6.029,CST-1368DR,4452,5038,12031,01.043,551
2022-12-14T18:50:08,42.805,6.029,CST-1368DR,4452,5032,12018,01.048,551
2022-12-14T18:53:10,42.805,6.029,CST-1368DR,4452,5036,12026,01.045,551
2022-12-14T18:56:11,42.805,6.029,CST-1368DR,4452,5035,12025,01.045,551
2022-12-14T18:59:13,42.805,6.029,CST-1368DR,4452,5034,12023,01.046,551
2022-12-14T19:02:14,42.805,6.029,CST-1368DR,4452,5041,12038,01.041,551
2022-12-14T19:05:16,42.805,6.029,CST-1368DR,4452,5039,12033,01.043,551
2022-12-14T19:08:18,42.805,6.029,CST-1368DR,4452,5039,12033,01.043,551
2022-12-14T19:11:19,42.805,6.029,CST-1368DR,4452,5036,12027,01.045,551
2022-12-14T19:14:21,42.805,6.029,CST-1368DR,4452,5032,12017,01.048,551
2022-12-14T19:17:22,42.805,6.029,CST-1368DR,4452,5031,12014,01.049,551
2022-12-14T19:20:24,42.805,6.029,CST-1368DR,4452,5032,12017,01.048,551
2022-12-14T19:23:25,42.805,6.029,CST-1368DR,4452,5031,12016,01.048,551
2022-12-14T19:26:27,42.805,6.029,CST-1368DR,4452,5033,12019,01.047,551
2022-12-14T19:29:29,42.805,6.029,CST-1368DR,4451,5035,12026,01.045,551
2022-12-14T19:32:30,42.805,6.029,CST-1368DR,4451,5033,12021,01.047,551
2022-12-14T19:35:32,42.805,6.029,CST-1368DR,4452,5037,12029,01.044,551
2022-12-14T19:38:33,42.805,6.029,CST-1368DR,4452,5037,12028,01.044,551
2022-12-14T19:41:35,42.805,6.029,CST-1368DR,4451,5037,12031,01.043,551
2022-12-14T19:44:37,42.805,6.029,CST-1368DR,4451,5035,12026,01.045,551
2022-12-14T19:47:38,42.805,6.029,CST-1368DR,4451,5037,12032,01.043,551
2022-12-14T19:50:40,42.805,6.029,CST-1368DR,4451,5036,12029,01.044,551
2022-12-14T19:53:41,42.805,6.029,CST-1368DR,4451,5035,12027,01.045,551
2022-12-14T19:56:43,42.805,6.029,CST-1368DR,4451,5039,12037,01.041,551
2022-12-14T19:59:45,42.805,6.029,CST-1368DR,4451,5034,12025,01.045,551
2022-12-14T20:02:46,42.805,6.029,CST-1368DR,4451,5035,12028,01.044,551
2022-12-14T20:05:48,42.805,6.029,CST-1368DR,4451,5034,12023,01.046,551
2022-12-14T20:08:49,42.805,6.029,CST-1368DR,4451,5035,12026,01.045,551
2022-12-14T20:11:51,42.805,6.029,CST-1368DR,4451,5034,12024,01.046,551
2022-12-14T20:14:52,42.805,6.029,CST-1368DR,4451,5034,12024,01.046,551
2022-12-14T20:17:54,42.805,6.029,CST-1368DR,4451,5033,12022,01.046,551
2022-12-14T20:20:56,42.805,6.029,CST-1368DR,4451,5029,12013,01.049,551
2022-12-14T20:23:57,42.805,6.029,CST-1368DR,4451,5033,12022,01.046,551
2022-12-14T20:26:59,42.805,6.029,CST-1368DR,4451,5035,12026,01.045,551
2022-12-14T20:30:00,42.805,6.029,CST-1368DR,4451,5034,12025,01.045,551
2022-12-14T20:33:02,42.805,6.029,CST-1368DR,4451,5035,12028,01.044,551
2022-12-14T20:36:04,42.805,6.029,CST-1368DR,4451,5034,12024,01.046,551
2022-12-14T20:39:05,42.805,6.029,CST-1368DR,4451,5033,12022,01.046,551
2022-12-14T20:42:07,42.805,6.029,CST-1368DR,4450,5032,12023,01.046,550
2022-12-14T20:45:08,42.805,6.029,CST-1368DR,4450,5032,12022,01.046,551
2022-12-14T20:48:10,42.805,6.029,CST-1368DR,4450,5033,12025,01.045,551
2022-12-14T20:51:11,42.805,6.029,CST-1368DR,4450,5031,12019,01.047,551
2022-12-14T20:54:13,42.805,6.029,CST-1368DR,4450,5031,12021,01.047,551
2022-12-14T20:57:15,42.805,6.029,CST-1368DR,4450,5031,12019,01.047,551
2022-12-14T21:00:16,42.805,6.029,CST-1368DR,4450,5027,12010,01.050,551
2022-12-14T21:03:18,42.805,6.029,CST-1368DR,4450,5028,12012,01.050,551
2022-12-14T21:06:19,42.805,6.029,CST-1368DR,4450,5031,12019,01.047,551
2022-12-14T21:09:21,42.805,6.029,CST-1368DR,4450,5031,12019,01.047,551
2022-12-14T21:12:23,42.805,6.029,CST-1368DR,4450,5026,12007,01.051,551
2022-12-14T21:15:24,42.805,6.029,CST-1368DR,4450,5028,12012,01.050,551
2022-12-14T21:18:26,42.805,6.029,CST-1368DR,4450,5031,12019,01.047,551
2022-12-14T21:21:27,42.805,6.029,CST-1368DR,4450,5038,12036,01.042,551
2022-12-14T21:24:29,42.805,6.029,CST-1368DR,4450,5030,12018,01.048,551
2022-12-14T21:27:30,42.805,6.029,CST-1368DR,4450,5033,12025,01.045,551
2022-12-14T21:30:32,42.805,6.029,CST-1368DR,4450,5031,12020,01.047,551
2022-12-14T21:33:34,42.805,6.029,CST-1368DR,4450,5032,12022,01.046,551
2022-12-14T21:36:35,42.805,6.029,CST-1368DR,4450,5031,12019,01.047,551
2022-12-14T21:39:37,42.805,6.029,CST-1368DR,4450,5031,12021,01.047,551
2022-12-14T21:42:38,42.805,6.029,CST-1368DR,4450,5031,12021,01.047,551
2022-12-14T21:45:40,42.805,6.029,CST-1368DR,4450,5030,12018,01.048,551
2022-12-14T21:48:42,42.805,6.029,CST-1368DR,4451,5031,12016,01.048,551
2022-12-14T21:51:43,42.805,6.029,CST-1368DR,4451,5031,12018,01.048,551
2022-12-14T21:54:45,42.805,6.029,CST-1368DR,4451,5031,12017,01.048,551
2022-12-14T21:57:46,42.805,6.029,CST-1368DR,4451,5032,12020,01.047,551
2022-12-14T22:00:48,42.805,6.029,CST-1368DR,4451,5031,12018,01.048,551
2022-12-14T22:03:50,42.805,6.029,CST-1368DR,4451,5031,12016,01.048,551
2022-12-14T22:06:51,42.805,6.029,CST-1368DR,4451,5032,12020,01.047,551
2022-12-14T22:09:53,42.805,6.029,CST-1368DR,4451,5030,12015,01.049,551
2022-12-14T22:12:54,42.805,6.029,CST-1368DR,4450,5030,12017,01.048,551
2022-12-14T22:15:56,42.805,6.029,CST-1368DR,4451,5030,12016,01.048,551
2022-12-14T22:18:57,42.805,6.029,CST-1368DR,4451,5029,12012,01.050,551
2022-12-14T22:21:59,42.805,6.029,CST-1368DR,4451,5029,12013,01.049,551
2022-12-14T22:25:01,42.805,6.029,CST-1368DR,4451,5031,12016,01.048,551
2022-12-14T22:28:02,42.805,6.029,CST-1368DR,4450,5030,12018,01.048,551
2022-12-14T22:31:04,42.805,6.029,CST-1368DR,4451,5032,12020,01.047,551
2022-12-14T22:34:05,42.805,6.029,CST-1368DR,4450,5031,12021,01.047,551
2022-12-14T22:37:07,42.805,6.029,CST-1368DR,4451,5031,12018,01.048,551
2022-12-14T22:40:09,42.805,6.029,CST-1368DR,4450,5025,12006,01.052,551
2022-12-14T22:43:10,42.805,6.029,CST-1368DR,4451,5032,12020,01.047,551
2022-12-14T22:46:12,42.805,6.029,CST-1368DR,4451,5031,12018,01.048,551
2022-12-14T22:49:13,42.805,6.029,CST-1368DR,4451,5030,12014,01.049,551
2022-12-14T22:52:15,42.805,6.029,CST-1368DR,4451,5030,12015,01.049,551
2022-12-14T22:55:16,42.805,6.029,CST-1368DR,4450,5031,12019,01.047,551
2022-12-14T22:58:18,42.805,6.029,CST-1368DR,4451,5030,12016,01.048,551
2022-12-14T23:01:20,42.805,6.029,CST-1368DR,4451,5030,12015,01.049,551
2022-12-14T23:04:21,42.805,6.029,CST-1368DR,4450,5032,12022,01.046,551
2022-12-14T23:07:23,42.805,6.029,CST-1368DR,4451,5029,12013,01.049,551
2022-12-14T23:10:24,42.805,6.029,CST-1368DR,4450,5031,12019,01.047,551
2022-12-14T23:13:26,42.805,6.029,CST-1368DR,4450,5031,12019,01.047,551
2022-12-14T23:16:28,42.805,6.029,CST-1368DR,4450,5030,12018,01.048,551
2022-12-14T23:19:29,42.805,6.029,CST-1368DR,4450,5032,12023,01.046,551
2022-12-14T23:22:31,42.805,6.029,CST-1368DR,4450,5031,12019,01.047,551
2022-12-14T23:25:32,42.805,6.029,CST-1368DR,4450,5030,12018,01.048,551
2022-12-14T23:28:34,42.805,6.029,CST-1368DR,4450,5031,12020,01.047,551
2022-12-14T23:31:35,42.805,6.029,CST-1368DR,4450,5027,12011,01.050,551
2022-12-14T23:34:37,42.805,6.029,CST-1368DR,4450,5031,12019,01.047,551
2022-12-14T23:37:39,42.805,6.029,CST-1368DR,4450,5030,12018,01.048,551
2022-12-14T23:40:40,42.805,6.029,CST-1368DR,4450,5031,12019,01.047,551
2022-12-14T23:43:42,42.805,6.029,CST-1368DR,4450,5030,12018,01.048,551
2022-12-14T23:46:43,42.805,6.029,CST-1368DR,4450,5029,12016,01.048,551
2022-12-14T23:49:45,42.805,6.029,CST-1368DR,4450,5029,12014,01.049,551
2022-12-14T23:52:47,42.805,6.029,CST-1368DR,4450,5030,12018,01.048,551
2022-12-14T23:55:48,42.805,6.029,CST-1368DR,4450,5030,12018,01.048,551
2022-12-14T23:58:50,42.805,6.029,CST-1368DR,4450,5024,12003,01.053,551
